STARLINK-34544

Last updated on Tue Aug 19 2025 00:02:06 GMT+0000 (Coordinated Universal Time)

1 64865U 25152Z 25230.59647532 .00030726 00000+0 78671-3 0 9996 2 64865 97.6036 84.1632 0001684 99.2655 260.8781 15.39348674 4782

Satellite not in orbit

STARLINK-34544